Weather History for London City, United Kingdom

Change the Weather History Date:

Sunday, January 6, 2013

  Actual Average Record
Temperature  
Mean Temperature 46 °F -  
Max Temperature 48 °F 44 °F 57 °F (1999)
Min Temperature 44 °F 38 °F 26 °F (2009)
Degree Days  
Heating Degree Days 19    
Moisture  
Dew Point 44 °F    
Average Humidity 94    
Maximum Humidity 100    
Minimum Humidity 87    
Precipitation  
Precipitation 0.00 in - - ()
Sea Level Pressure  
Sea Level Pressure 30.48 in    
Wind  
Wind Speed 6 mph ()    
Max Wind Speed 10 mph    
Max Gust Speed -    
Visibility 4.6 miles    
Events Fog    
Averages and records for this station are not official NWS values.
T = Trace of Precipitation, MM = Missing Value Source: Averaged Metar Reports

Daily Weather History Graph

Daily Weather History Graph

Search for Another Location

Airport:

Trip Planner

Search our weather history database for the weather conditions in past years. The results will help you decide how hot, cold, wet, or windy it might be!

Date:

Astronomy

Jan. 06, 2013 Rise Set
Actual Time 8:04 AM GMT 4:07 PM GMT
Civil Twilight 7:24 AM GMT 4:47 PM GMT
Nautical Twilight 6:42 AM GMT 5:29 PM GMT
Astronomical Twilight 6:01 AM GMT 6:10 PM GMT
Moon 1:42 AM GMT (1/6) 11:40 AM GMT (1/6)
Length of Visible Light 9h 22m
Length of Day
8h 03m
Waning Crescent, 35% of the Moon is Illuminated
Jan 6
Waning Crescent
Jan 11
New
Jan 18
First Quarter
Jan 27
Full
Feb 3
Last Quarter

Hourly Weather History & Observations

Time (GMT) Temp. Windchill Dew Point Humidity Pressure Visibility Wind Dir Wind Speed Gust Speed Precip Events Conditions
12:20 AM 46.4 °F 42.4 °F 44.6 °F 93% 30.51 in 6.2 mi WSW 8.1 mph - N/A   Unknown
12:50 AM 46.4 °F 42.4 °F 44.6 °F 93% 30.51 in 6.2 mi WSW 8.1 mph - N/A   Unknown
1:20 AM 46.4 °F 42.9 °F 44.6 °F 93% 30.51 in 6.2 mi WSW 6.9 mph - N/A   Unknown
1:50 AM 46.4 °F 44.3 °F 44.6 °F 93% 30.51 in 6.2 mi SW 4.6 mph - N/A   Unknown
2:20 AM 46.4 °F 42.9 °F 44.6 °F 93% 30.51 in 6.2 mi WSW 6.9 mph - N/A   Unknown
2:50 AM 46.4 °F 42.4 °F 44.6 °F 93% 30.51 in 6.2 mi WSW 8.1 mph - N/A   Unknown
3:20 AM 46.4 °F 42.4 °F 44.6 °F 93% 30.51 in 6.2 mi WSW 8.1 mph - N/A   Unknown
3:50 AM 46.4 °F 41.9 °F 44.6 °F 93% 30.51 in 6.2 mi SW 9.2 mph - N/A   Unknown
4:20 AM 46.4 °F 42.4 °F 44.6 °F 93% 30.51 in 6.2 mi WSW 8.1 mph - N/A   Unknown
4:50 AM 44.6 °F 40.2 °F 42.8 °F 93% 30.51 in 5.0 mi WSW 8.1 mph - N/A   Partly Cloudy
5:20 AM 44.6 °F 39.7 °F 42.8 °F 93% 30.51 in 3.7 mi SW 9.2 mph - N/A   Scattered Clouds
5:50 AM 44.6 °F 39.7 °F 42.8 °F 93% 30.51 in - SW 9.2 mph - N/A   Scattered Clouds
6:20 AM 44.6 °F 39.7 °F 42.8 °F 93% 30.51 in 0.7 mi WSW 9.2 mph - N/A   Mostly Cloudy
6:50 AM 44.6 °F 39.2 °F 42.8 °F 93% 30.51 in - WSW 10.4 mph - N/A Fog Fog
7:20 AM 44.6 °F 41.4 °F 44.6 °F 100% 30.51 in - West 5.8 mph - N/A Fog Fog
7:50 AM 44.6 °F - 44.6 °F 100% 30.51 in 1.0 mi Calm Calm - N/A   Overcast
8:20 AM 44.6 °F 43.1 °F 44.6 °F 100% 30.51 in 1.6 mi WNW 3.5 mph - N/A   Mostly Cloudy
8:50 AM 44.6 °F - 44.6 °F 100% 30.51 in 0.9 mi Variable 2.3 mph - N/A   Mostly Cloudy
9:20 AM 46.4 °F - 44.6 °F 93% 30.51 in 0.7 mi Calm Calm - N/A   Mostly Cloudy
9:50 AM 46.4 °F - 44.6 °F 93% 30.51 in 0.8 mi Calm Calm - N/A   Mostly Cloudy
10:20 AM 46.4 °F - 46.4 °F 100% 30.51 in 1.0 mi SW 2.3 mph - N/A   Overcast
10:50 AM 46.4 °F 44.3 °F 46.4 °F 100% 30.51 in - WSW 4.6 mph - N/A   Mostly Cloudy
11:20 AM 46.4 °F 43.5 °F 46.4 °F 100% 30.51 in 3.1 mi WSW 5.8 mph - N/A   Mostly Cloudy
11:50 AM 46.4 °F 43.5 °F 46.4 °F 100% 30.51 in 2.5 mi WSW 5.8 mph - N/A   Mostly Cloudy
12:20 PM 46.4 °F 43.5 °F 44.6 °F 93% 30.51 in 2.5 mi SSW 5.8 mph - N/A   Mostly Cloudy
12:50 PM 46.4 °F 42.9 °F 44.6 °F 93% 30.48 in 3.7 mi SW 6.9 mph - N/A   Mostly Cloudy
1:20 PM 46.4 °F 44.3 °F 44.6 °F 93% 30.48 in 5.0 mi WSW 4.6 mph - N/A   Mostly Cloudy
1:50 PM 46.4 °F 44.3 °F 44.6 °F 93% 30.48 in 5.0 mi SW 4.6 mph - N/A   Mostly Cloudy
2:20 PM 44.6 °F 41.4 °F 44.6 °F 100% 30.48 in 5.0 mi WSW 5.8 mph - N/A   Scattered Clouds
2:50 PM 44.6 °F 40.7 °F 42.8 °F 93% 30.45 in 6.2 mi SW 6.9 mph - N/A   Scattered Clouds
3:20 PM 44.6 °F 40.2 °F 42.8 °F 93% 30.45 in 5.6 mi SSW 8.1 mph - N/A   Mostly Cloudy
3:50 PM 44.6 °F 40.2 °F 42.8 °F 93% 30.45 in 4.3 mi WSW 8.1 mph - N/A   Mostly Cloudy
4:20 PM 44.6 °F 41.4 °F 42.8 °F 93% 30.45 in 5.6 mi SSW 5.8 mph - N/A   Mostly Cloudy
4:50 PM 44.6 °F 42.2 °F 42.8 °F 93% 30.45 in 5.6 mi SW 4.6 mph - N/A   Scattered Clouds
5:20 PM 44.6 °F - 42.8 °F 93% 30.45 in 5.0 mi SSW 2.3 mph - N/A   Scattered Clouds
5:50 PM 44.6 °F - 42.8 °F 93% 30.45 in 5.0 mi Variable 2.3 mph - N/A   Mostly Cloudy
6:20 PM 46.4 °F - 44.6 °F 93% 30.42 in 5.6 mi Variable 2.3 mph - N/A   Mostly Cloudy
6:50 PM 46.4 °F 45.2 °F 44.6 °F 93% 30.42 in 5.6 mi Variable 3.5 mph - N/A   Mostly Cloudy
7:20 PM 46.4 °F 45.2 °F 44.6 °F 93% 30.42 in 5.6 mi Variable 3.5 mph - N/A   Mostly Cloudy
7:50 PM 46.4 °F 43.5 °F 44.6 °F 93% 30.42 in 4.3 mi SSW 5.8 mph - N/A   Mostly Cloudy
8:20 PM 48.2 °F - 44.6 °F 87% 30.42 in 4.3 mi SSW 5.8 mph - N/A   Mostly Cloudy
8:50 PM 48.2 °F - 44.6 °F 87% 30.42 in 4.3 mi SW 5.8 mph - N/A   Mostly Cloudy
9:20 PM 48.2 °F - 44.6 °F 87% 30.42 in 5.0 mi SSW 5.8 mph - N/A   Mostly Cloudy
9:50 PM 48.2 °F - 44.6 °F 87% 30.42 in 6.2 mi SSW 8.1 mph - N/A   Mostly Cloudy
10:20 PM 48.2 °F - 44.6 °F 87% 30.42 in 6.2 mi SSW 6.9 mph - N/A   Mostly Cloudy
10:50 PM 46.4 °F 42.4 °F 44.6 °F 93% 30.42 in 6.2 mi SSW 8.1 mph - N/A   Overcast
11:20 PM 46.4 °F 42.9 °F 44.6 °F 93% 30.42 in 6.2 mi SW 6.9 mph - N/A   Mostly Cloudy
11:50 PM 46.4 °F 42.9 °F 44.6 °F 93% 30.42 in 6.2 mi SSW 6.9 mph - N/A   Mostly Cloudy